Location: Grand Moustoir
(47.8355°N, 3.3120°W)
Time: 08:06:32
(UTC+00:00)

Cosmos 1703 - Pass Details

Date: 20 January 2020
Orbit: 523 x 541 km, 82.5° (Epoch: 27 February)

Event Time Altitude Azimuth Distance (km) Brightness Sun altitude
Exits shadow 06:37:29 - 344° (NNW) 2,399 6.3 -12.7°
Reaches altitude 10° 06:38:57 10° 340° (NNW) 1,812 5.6 -12.4°
Maximum altitude 06:42:47 49° 266° (W) 703 3.5 -11.8°
Drops below altitude 10° 06:46:35 10° 191° (S) 1,787 6.0 -11.2°
Sets 06:48:45 0° 186° (S) 2,669 7.0 -10.9°
